Погода в Кызыле

Погода в Кызыле : погода сейчас, прогноз погоды и архив. Всё, что Вы хотите узнать о погоде в Кызыле!

Хотите узнать прогноз погоды в Кызыле? Тогда Вам сюда: Погода в Кызыле

Поиск расширенной информации на нашем сайте:

Другие новости

Новости СМИ2

Главная страница сайта

Новости сайта

03.07.2017

Напоминаем, что на нашем специализированном сайте Метеоцентр.Азия вы можете получить высокодетализированные автоматические прогнозы погоды по пунктам России, СНГ и мира в авиационном формате (включающие направление и скорость ветра, видимость, явления погоды, количество и форму облачности, нижнюю и верхнюю границу облачности).


Погода в Кызыле - сегодня

Время (UTC), дата Ветер
(°,м/с) 
Видим.   Явления Облачность Т
(°С)
Тd
(°С)
f(%) Тe
(°С)
Pmin
(гПа)
dP
(гПа)
Po
(мм)
O2
(г/м3)
Тmin Tmax R s Состояние
почвы
09 21.09.17 170 (Ю) 20000 м    10/10 600 м кучево-дожд. 
[Cb cap]
+13 -1.8 36 +13  1011.1  -3.8  704  271           
12 21.09.17 310 (СЗ) 20000 м  слаб. ливневой дождь  10/10 600 м кучево-дожд. 
[Cb cap]
+11.3 +0.7 48 +12  1010.3  -1.1  703  272    +13.7  0.0     
15 21.09.17 130 (ЮВ) 10 км  в посл. час ливневой дождь  10/10 600 м кучево-дожд. 
[Cb cap]
+8.4 +4.8 78 +9  1009.8  -1.1  702  274           
18 21.09.17 тихо ()   10 км  в посл. час ливневой дождь  9/8 1000 м кучево-дожд., верхняя 
[Cb cap|Ci fib]
+7.5 +5.4 87 +8  1007.5  -2.1  700  274           
21 21.09.17 тихо ()   10 км    10/10 1000 м кучево-дожд. 
[Cb cap]
+6.6 +5 90 +7  1006.7  -1.1  700  274           
00 22.09.17 тихо ()   20000 м    9/8 1000 м кучево-дожд., верхняя 
[Cb cap|Ci fib]
+5.1 +5.1 100 +5  1007.1  0.1  700  276  +4.8    0.6     
03 22.09.17 270 (З) 20000 м    9/8 600 м кучево-дожд., средняя, верхняя 
[Cb cap|Ac trans|Ci sp]
+8.7 +5.6 81 +10  1006.1  0.1  700  272           
06 22.09.17 тихо ()   20000 м  в посл. час ливневой дождь  9/8 600 м кучево-дожд., средняя, верхняя 
[Cb cap|Ac trans|Ci sp]
+12.7 +5.3 61 +13  1004.1  -1.3  699  268           
09 22.09.17 250 (З) 20000 м  в посл. час ливневой дождь  9/8 600 м кучево-дожд., средняя, верхняя 
[Cb cap|Ac trans|Ci sp]
+13 +4.2 55 +13  1003.6  -0.3  699  268           
12 22.09.17 330 (СЗ) 1{12}  20000 м  {ливн. осадки}  9/8 600 м кучево-дожд., средняя, верхняя 
[Cb cap|Ac trans|Ci sp]
+8.7 +4.6 75 +10  1006.8  700  273    +14.2  0.3     
15 22.09.17 270 (З) 10 км    8/6 1000 м кучево-дожд., средняя 
[Cb cap|Ac trans]
+8.2 +2.8 69 +9  1010.8  3.5  703  274           
18 22.09.17 320 (СЗ) 10 км    6/3 1000 м средняя 
[Sc|Ac trans]
+5.7 +1.4 74 +7  1013.5  1.8  704  278           
21 22.09.17 220 (ЮЗ) 10 км    ясно 
+2.7 +1 89 +3  1015.3  0.9  705  281           
00 23.09.17 040 (СВ) 20000 м    5/3 1000 м верхняя 
[Sc|Ci fib]
+2 +1.2 94 +3  1015.6  0.1  705  282  +1.1        замёрзшая 
03 23.09.17 070 (В) 20000 м    9/0 средняя, верхняя 
[Ac trans|Ci fib]
+6.5 +0.7 66 +6  1014.2  -0.2  705  277           
06 23.09.17 270 (З) 20000 м    9/6 1000 м кучево-дожд., средняя, верхняя 
[Cb cap|Ac trans|Ci fib]
+10.2 +0.4 51 +10  1010.6  -2.3  703  273           
12 23.09.17 340 (С) 20000 м  {ливн. осадки}  9/6 1000 м кучево-дожд., средняя, верхняя 
[Cb cap|Ac trans|Ci fib]
+10.7 +0.5 49 +12  1005.3  -2.6  699  271    +14  0.0     
15 23.09.17 010 (С) 10 км  {ливн. осадки}  10/10 1000 м кучево-дожд. 
[Cb cap]
+9.9 +1.5 56 +11  1001.6  -3.7  697  270           
18 23.09.17 330 (СЗ) 10 км  в посл. час ливневой дождь  10/10 1000 м кучево-дожд. 
[Cb cap]
+8.8 +3.3 68 +9  1000.7  -1.2  696  271           
21 23.09.17 200 (Ю) 10 км  в посл. час ливневой дождь  10/10 1000 м кучево-дожд. 
[Cb cap]
+6.5 +1.8 72 +6  1004.6  3.3  698  274           
00 24.09.17 260 (З) 20000 м  {ливн. осадки}  10/10 600 м кучево-дожд. 
[Cb cap]
+5.7 +0.6 70 +4  1005.8  0.8  699  276  +5.5      мокрая 
03 24.09.17 240 (ЮЗ) 20000 м  осадки на расстоянии  9/8 600 м кучево-дожд., средняя 
[Cb cap|Ac trans]
+6.1 -2.8 53 +4  1010.7  4.7  702  277           
06 24.09.17 260 (З) 5{12}  20000 м    9/9 1000 м кучево-дожд. 
[Cb cap]
+7.6 -4.3 43 +6  1011.9  1.4  703  276           
09 24.09.17 290 (З) 5{13}  20000 м    8/8 1000 м кучево-дожд. 
[Cb cap]
+8 -8 31 +6  1014.6  2.6  705  277           
12 24.09.17 280 (З) 4{11}  20000 м    6/6 1000 м кучево-дожд. 
[Cb cap]
+5.7 -7.1 39 +4  1018.9  3.4  708  280    +10.1       
Время (UTC), дата Ветер
(°,м/с) 
Видим.   Явления Облачность Т
(°С)
Тd
(°С)
f(%) Тe
(°С)
Pmin
(гПа)
dP
(гПа)
Po
(мм)
O2
(г/м3)
Тmin Tmax R s Состояние
почвы

Для получения пояснительной информации подведите курсор к названию столбца.

ПОГОДА в Кызыле - архив

Всё, что Вы хотите узнать о погоде в Кызыле - удобно и подробно!

Выберите нужную дату (начиная с 1 января 2015* года) и нажмите кнопку "Найти".
Будут отображены архивные сводки погоды по пункту Кызыл, начиная с указанной даты.


Отображать данные в формате CSV (для использования в таблицах Excel)


Внимание! Наш архив погоды предназначен исключительно для личного некоммерческого использования в познавательных целях. Если Вам необходимы официальные справки о состоянии погоды (для производственных, юридических, коммерческих и т.п. целей), обращайтесь в органы Росгидромета.

*Примечание: данная дата относится к архиву по метеостанциям СССР (Россия, СНГ, Балтия).
Архив по метеостанциям Зарубежной Европы и Азии (кроме Китая) хранится 10 дней, по другим регионам земного шара (Китай, Африка, Америка, Австралия, Океания) - 1 день.

Кызыл - район местоположения метеостанции


Название, широта, долгота, высота метеостанции:
Кызыл 51.7°ш. 94.5°д. 628 м над ур. моря [Российская Федерация]

Дополнительная информация

В oтличие oт бoльшинства пoгoдных сайтoв мы публикуем пoдрoбную метеoинфoрмацию в детальнoм прoфессиoнальнoм фoрмате.

Характеристики температуры и влажнoсти вoздуха измеряются на высoте 2 м в тени вдали oт зданий и деревьев.
Скoрoсть ветра измеряется на высoте 10 м (на урoвне рoста челoвека скoрoсть ветра ниже в 1.5-2 раза). Если метеoстанция нахoдится в гoрoде или в лесу, тo скoрoсть ветра занижена на 2-4 м/с пo сравнению с oткрытым местoм. Скoрoсть ветра над акватoриями крупных рек и oзёр, а также на вершинах хoлмoв на 2-5 м/с выше, чем в oбычных услoвиях.
Атмoсфернoе давление в разных тoчках местнoсти мoжет значительнo oтличаться oт давления на метеoстанции, в зависимoсти oт услoвий рельефа (при пoдъёме на 10 м давление пoнижается примернo на 1 мм рт.ст.).